datetime,gage height
2012-05-29,39.99
2012-05-30,39.96
2012-05-31,39.94
2012-06-01,39.92
2012-06-02,39.91
2012-06-03,39.88
2012-06-04,39.87
2012-06-05,39.96
2012-06-06,39.96
2012-06-07,39.96
2012-06-08,39.94
2012-06-09,39.94
2012-06-10,39.96
2012-06-11,39.94
2012-06-12,39.91
2012-06-13,39.88
2012-06-14,39.85
2012-06-15,39.81
2012-06-16,39.8
2012-06-17,39.77
2012-06-18,39.71
2012-06-19,39.7
2012-06-20,39.7
2012-06-21,39.71
2012-06-22,39.71
2012-06-23,39.74
2012-06-24,39.76
2012-06-25,39.76
2012-06-26,39.8
2012-06-27,39.82
2012-06-28,39.8
2012-06-29,39.8
2012-06-30,39.79
2012-07-01,39.8
2012-07-02,39.83
2012-07-03,39.9
2012-07-04,39.95
2012-07-05,39.94
2012-07-06,39.9
2012-07-07,39.89
2012-07-08,39.89
2012-07-09,39.88
2012-07-10,39.83
2012-07-11,39.79
2012-07-12,39.74
2012-07-13,39.71
2012-07-14,39.69
2012-07-15,39.68
2012-07-16,39.66
2012-07-17,39.67
2012-07-18,39.68
2012-07-19,39.7
2012-07-20,39.72
2012-07-21,39.74
2012-07-22,39.71
2012-07-23,39.7
2012-07-24,39.7
2012-07-25,39.68
2012-07-26,39.67
2012-07-27,39.68
2012-07-28,39.68
2012-07-29,39.68
2012-07-30,39.68
2012-07-31,39.69
2012-08-01,39.67
2012-08-02,39.72
2012-08-03,39.76
2012-08-04,39.79
2012-08-05,39.8
2012-08-06,39.81
2012-08-07,39.81
2012-08-08,39.81
2012-08-09,39.82
2012-08-10,39.83
2012-08-11,39.84
2012-08-12,39.83
2012-08-13,39.82
2012-08-14,39.79
2012-08-15,39.76
2012-08-16,39.74
2012-08-17,39.73
2012-08-18,39.74
2012-08-19,39.72
2012-08-20,39.7
2012-08-21,39.7
2012-08-22,39.71
2012-08-23,39.7
2012-08-24,39.69
2012-08-25,39.67
2012-08-26,39.66
2012-08-27,39.66
2012-08-28,39.64
2012-08-29,39.65
2012-08-30,39.67
2012-08-31,39.68
2012-09-01,39.67
2012-09-02,39.68
2012-09-03,39.68
2012-09-04,39.68
2012-09-05,39.68
2012-09-06,39.67
2012-09-07,39.67
2012-09-08,39.66
2012-09-09,39.68
2012-09-10,39.66
2012-09-11,39.66
2012-09-12,39.66
2012-09-13,39.67
2012-09-14,39.68
2012-09-15,39.67
2012-09-16,39.71
2012-09-17,39.73
2012-09-18,39.88
2012-09-19,39.97
2012-09-20,39.92
2012-09-21,39.91
2012-09-22,39.91
2012-09-23,39.91
2012-09-24,39.91
2012-09-25,39.92
2012-09-26,39.92
2012-09-27,39.93
2012-09-28,39.91
2012-09-29,39.9
2012-09-30,39.88
2012-10-01,39.86
2012-10-02,39.84
2012-10-03,39.82
2012-10-04,39.81
2012-10-05,39.8
2012-10-06,39.81
2012-10-07,39.81
2012-10-08,39.82
2012-10-09,39.84
2012-10-10,39.87
2012-10-11,39.87
2012-10-12,39.87
2012-10-13,39.87
2012-10-14,39.89
2012-10-15,39.9
2012-10-16,39.92
2012-10-17,39.93
2012-10-18,39.92
2012-10-19,39.92
2012-10-20,39.91
2012-10-21,39.91
2012-10-22,39.93
2012-10-23,39.98
2012-10-24,39.98
2012-10-25,40.02
2012-10-26,40.1
2012-10-27,40.11
2012-10-28,40.11
2012-10-29,40.12
2012-10-30,40.11
2012-10-31,40.17
2012-11-01,40.2
2012-11-02,40.17
2012-11-03,40.15
2012-11-04,40.13
2012-11-05,40.11
2012-11-06,40.09
2012-11-07,40.09
2012-11-08,40.12
2012-11-09,40.17
2012-11-10,40.18
2012-11-11,40.16
2012-11-12,40.14
2012-11-13,40.18
2012-11-14,40.17
2012-11-15,40.16
2012-11-16,40.14
2012-11-17,40.18
2012-11-18,40.28
2012-11-19,40.31
2012-11-20,40.3
2012-11-21,40.52
2012-11-22,40.59
2012-11-23,40.43
2012-11-24,40.31
2012-11-25,40.24
2012-11-26,40.2
2012-11-27,40.17
2012-11-28,40.16
2012-11-29,40.17
2012-11-30,41.71
2012-12-01,41.89
2012-12-02,44.63
2012-12-03,43.82
2012-12-04,42.62
2012-12-05,43.01
2012-12-06,42.91
2012-12-07,42.28
2012-12-08,41.85
2012-12-09,41.55
2012-12-10,41.35
2012-12-11,41.17
2012-12-12,41.08
2012-12-13,41.0
2012-12-14,40.86
2012-12-15,41.31
2012-12-16,41.42
2012-12-17,41.28
2012-12-18,41.21
2012-12-19,41.31
2012-12-20,41.08
2012-12-21,40.9
2012-12-22,40.83
2012-12-23,40.78
2012-12-24,40.73
2012-12-25,40.68
2012-12-26,40.57
2012-12-27,40.63
2012-12-28,40.81
2012-12-29,40.57
2012-12-30,40.53
2012-12-31,40.73
2013-01-01,40.52
2013-01-02,40.53
2013-01-03,40.45
2013-01-04,40.47
2013-01-05,40.47
2013-01-06,40.5
2013-01-07,40.54
2013-01-08,40.57
2013-01-09,40.65
2013-01-10,40.86
2013-01-11,41.19
2013-01-12,41.0
2013-01-13,41.15
2013-01-14,42.0
2013-01-15,41.1
2013-01-16,40.81
2013-01-17,40.69
2013-01-18,40.6
2013-01-19,40.52
2013-01-20,40.45
2013-01-21,40.4
2013-01-22,40.39
2013-01-23,40.4
2013-01-24,40.53
2013-01-25,41.54
2013-01-26,43.87
2013-01-27,44.24
2013-01-28,43.69
2013-01-29,42.88
2013-01-30,42.58
2013-01-31,42.4
2013-02-01,42.21
2013-02-02,42.16
2013-02-03,42.46
2013-02-04,42.83
2013-02-05,43.19
2013-02-06,43.42
2013-02-07,42.98
2013-02-08,42.38
2013-02-09,42.01
2013-02-10,41.88
2013-02-11,41.76
2013-02-12,41.71
2013-02-13,41.69
2013-02-14,41.81
2013-02-15,41.98
2013-02-16,42.28
2013-02-17,42.48
2013-02-18,42.2
2013-02-19,42.07
2013-02-20,41.87
2013-02-21,41.85
2013-02-22,41.78
2013-02-23,41.83
2013-02-24,41.79
2013-02-25,41.78
2013-02-26,41.66
2013-02-27,41.63
2013-02-28,41.62
2013-03-01,41.86
2013-03-02,42.58
2013-03-03,42.68
2013-03-04,42.74
2013-03-05,42.8
2013-03-06,42.81
2013-03-07,42.74
2013-03-08,42.63
2013-03-09,42.5
2013-03-10,42.42
2013-03-11,42.41
2013-03-12,42.53
2013-03-13,42.84
2013-03-14,43.09
2013-03-15,43.18
2013-03-16,43.19
2013-03-17,43.03
2013-03-18,42.85
2013-03-19,42.69
2013-03-20,42.57
2013-03-21,42.71
2013-03-22,42.7
2013-03-23,42.53
2013-03-24,42.38
2013-03-25,42.01
2013-03-26,41.77
2013-03-27,41.8
2013-03-28,41.76
2013-03-29,41.72
2013-03-30,41.65
2013-03-31,41.59
2013-04-01,42.29
2013-04-02,42.66
2013-04-03,42.4
2013-04-04,42.11
2013-04-05,41.89
2013-04-06,41.77
2013-04-07,41.69
2013-04-08,41.8
2013-04-09,41.77
2013-04-10,41.69
2013-04-11,41.56
2013-04-12,41.5
2013-04-13,41.39
2013-04-14,41.27
2013-04-15,41.3
2013-04-16,41.33
2013-04-17,41.32
2013-04-18,41.32
2013-04-19,41.29
2013-04-20,41.22
2013-04-21,41.21
2013-04-22,41.19
2013-04-23,41.03
2013-04-24,40.63
2013-04-25,40.43
2013-04-26,40.31
2013-04-27,40.16
2013-04-28,40.06
2013-04-29,40.0
2013-04-30,39.95
2013-05-01,39.91
2013-05-02,39.88
2013-05-03,39.86
2013-05-04,39.84
2013-05-05,39.83
2013-05-06,39.86
2013-05-07,40.19
2013-05-08,40.63
2013-05-09,40.85
2013-05-10,40.56
2013-05-11,40.37
2013-05-12,40.27
2013-05-13,40.3
2013-05-14,40.22
2013-05-15,40.18
2013-05-16,39.72
2013-05-17,
2013-05-18,
2013-05-19,
2013-05-20,
2013-05-21,
2013-05-22,
2013-05-23,
2013-05-24,
2013-05-25,
2013-05-26,
2013-05-27,
2013-05-28,
2013-05-29,
2013-05-30,
2013-05-31,39.94
2013-06-01,39.89
2013-06-02,39.79
2013-06-03,39.71
2013-06-04,39.66
2013-06-05,39.63
2013-06-06,39.64
2013-06-07,39.64
2013-06-08,39.64
2013-06-09,39.64
2013-06-10,39.64
2013-06-11,39.64
2013-06-12,39.64
2013-06-13,39.64
2013-06-14,39.64
2013-06-15,39.65
2013-06-16,39.64
2013-06-17,39.63
2013-06-18,39.62
2013-06-19,39.62
2013-06-20,39.63
2013-06-21,39.66
2013-06-22,39.67
2013-06-23,39.67
2013-06-24,39.74
2013-06-25,39.82
2013-06-26,39.91
2013-06-27,39.91
2013-06-28,39.91
2013-06-29,39.88
2013-06-30,39.81
2013-07-01,39.75
2013-07-02,39.69
2013-07-03,39.66
2013-07-04,39.64
2013-07-05,39.63
2013-07-06,39.62
2013-07-07,39.61
2013-07-08,39.61
2013-07-09,39.6
2013-07-10,39.61
2013-07-11,39.6
2013-07-12,39.6
2013-07-13,39.6
2013-07-14,39.6
2013-07-15,39.6
2013-07-16,39.6
2013-07-17,39.59
2013-07-18,39.6
2013-07-19,39.6
2013-07-20,39.6
2013-07-21,39.6
2013-07-22,39.6
2013-07-23,39.61
2013-07-24,39.61
2013-07-25,39.62
2013-07-26,39.62
2013-07-27,39.61
2013-07-28,39.62
2013-07-29,39.62
2013-07-30,39.61
2013-07-31,39.58
2013-08-01,39.54
2013-08-02,39.52
2013-08-03,39.5
2013-08-04,39.48
2013-08-05,39.47
2013-08-06,39.46
2013-08-07,39.48
2013-08-08,39.5
2013-08-09,39.54
2013-08-10,39.57
2013-08-11,39.56
2013-08-12,39.55
2013-08-13,39.53
2013-08-14,39.51
2013-08-15,39.48
2013-08-16,39.45
2013-08-17,39.43
2013-08-18,39.42
2013-08-19,39.39
2013-08-20,39.38
2013-08-21,39.38
2013-08-22,39.45
2013-08-23,39.6
2013-08-24,39.6
2013-08-25,39.6
2013-08-26,39.61
2013-08-27,39.61
2013-08-28,39.61
2013-08-29,39.62
2013-08-30,39.62
2013-08-31,39.64
2013-09-01,39.64
2013-09-02,39.64
2013-09-03,39.66
2013-09-04,39.69
2013-09-05,39.68
2013-09-06,
2013-09-07,
2013-09-08,
2013-09-09,
2013-09-10,39.71
2013-09-11,39.73
2013-09-12,39.74
2013-09-13,39.75
2013-09-14,39.75
2013-09-15,39.75
2013-09-16,39.76
2013-09-17,39.78
2013-09-18,39.83
2013-09-19,39.84
2013-09-20,39.84
2013-09-21,39.9
2013-09-22,39.94
2013-09-23,39.87
2013-09-24,39.82
2013-09-25,39.8
2013-09-26,39.78
2013-09-27,39.85
2013-09-28,39.99
2013-09-29,39.95
2013-09-30,39.78
2013-10-01,39.83
2013-10-02,39.8
2013-10-03,39.71
2013-10-04,39.7
2013-10-05,39.69
2013-10-06,39.69
2013-10-07,39.69
2013-10-08,39.69
2013-10-09,39.7
2013-10-10,39.7
2013-10-11,39.7
2013-10-12,39.74
2013-10-13,39.77
2013-10-14,39.75
2013-10-15,39.75
2013-10-16,39.75
2013-10-17,39.72
2013-10-18,39.7
2013-10-19,39.73
2013-10-20,39.75
2013-10-21,39.76
2013-10-22,39.76
2013-10-23,39.78
2013-10-24,39.8
2013-10-25,39.86
2013-10-26,39.89
2013-10-27,39.9
2013-10-28,39.94
2013-10-29,39.97
2013-10-30,39.98
2013-10-31,39.98
2013-11-01,39.98
2013-11-02,39.98
2013-11-03,39.99
2013-11-04,39.99
2013-11-05,39.99
2013-11-06,40.0
2013-11-07,40.0
2013-11-08,40.0
2013-11-09,39.99
2013-11-10,39.98
2013-11-11,39.97
2013-11-12,39.96
2013-11-13,39.95
2013-11-14,39.94
2013-11-15,39.93
2013-11-16,39.94
2013-11-17,39.96
2013-11-18,40.17
2013-11-19,40.22
2013-11-20,40.24
2013-11-21,40.24
2013-11-22,40.15
2013-11-23,40.08
2013-11-24,40.04
2013-11-25,40.05
2013-11-26,40.06
2013-11-27,40.08
2013-11-28,40.08
2013-11-29,40.07
2013-11-30,40.07
2013-12-01,40.07
2013-12-02,40.08
2013-12-03,40.11
2013-12-04,40.11
2013-12-05,40.06
2013-12-06,39.95
2013-12-07,39.96
2013-12-08,40.05
2013-12-09,39.98
2013-12-10,40.05
2013-12-11,40.09
2013-12-12,40.07
2013-12-13,40.09
2013-12-14,40.11
2013-12-15,40.68
2013-12-16,40.32
2013-12-17,40.15
2013-12-18,40.1
2013-12-19,40.08
2013-12-20,40.02
2013-12-21,40.06
2013-12-22,40.1
2013-12-23,40.1
2013-12-24,40.1
2013-12-25,40.07
2013-12-26,40.05
2013-12-27,40.04
2013-12-28,40.04
2013-12-29,40.03
2013-12-30,40.03
2013-12-31,40.05
2014-01-01,40.06
2014-01-02,40.07
2014-01-03,40.06
2014-01-04,40.08
2014-01-05,40.05
2014-01-06,40.04
2014-01-07,40.06
2014-01-08,40.1
2014-01-09,40.12
2014-01-10,40.11
2014-01-11,40.14
2014-01-12,40.13
2014-01-13,40.1
2014-01-14,40.17
2014-01-15,40.21
2014-01-16,40.14
2014-01-17,40.13
2014-01-18,40.12
2014-01-19,40.11
2014-01-20,40.13
2014-01-21,40.12
2014-01-22,40.11
2014-01-23,40.09
2014-01-24,40.08
2014-01-25,40.08
2014-01-26,40.08
2014-01-27,40.08
2014-01-28,40.07
2014-01-29,40.06
2014-01-30,40.05
2014-01-31,39.94
2014-02-01,39.83
2014-02-02,39.78
2014-02-03,39.76
2014-02-04,39.81
2014-02-05,39.89
2014-02-06,39.94
2014-02-07,39.94
2014-02-08,40.03
2014-02-09,40.25
2014-02-10,40.2
2014-02-11,40.12
2014-02-12,40.3
2014-02-13,40.42
2014-02-14,40.5
2014-02-15,40.55
2014-02-16,40.65
2014-02-17,41.01
2014-02-18,40.81
2014-02-19,40.8
2014-02-20,40.8
2014-02-21,40.78
2014-02-22,40.75
2014-02-23,40.7
2014-02-24,40.67
2014-02-25,40.63
2014-02-26,40.59
2014-02-27,40.62
2014-02-28,40.63
2014-03-01,40.6
2014-03-02,40.6
2014-03-03,40.59
2014-03-04,41.25
2014-03-05,41.3
2014-03-06,41.26
2014-03-07,41.38
2014-03-08,41.2
2014-03-09,41.2
2014-03-10,44.64
2014-03-11,44.19
2014-03-12,43.29
2014-03-13,42.59
2014-03-14,42.12
2014-03-15,41.81
2014-03-16,41.59
2014-03-17,41.34
2014-03-18,41.29
2014-03-19,41.57
2014-03-20,41.54
2014-03-21,41.52
2014-03-22,41.48
2014-03-23,41.46
2014-03-24,41.41
2014-03-25,41.33
2014-03-26,41.3
2014-03-27,41.29
2014-03-28,41.24
2014-03-29,41.28
2014-03-30,41.3
2014-03-31,41.41
2014-04-01,41.47
2014-04-02,41.52
2014-04-03,41.77
2014-04-04,41.75
2014-04-05,41.74
2014-04-06,41.68
2014-04-07,41.61
2014-04-08,41.54
2014-04-09,41.44
2014-04-10,41.37
2014-04-11,41.33
2014-04-12,41.29
2014-04-13,41.23
2014-04-14,41.16
2014-04-15,41.01
2014-04-16,40.86
2014-04-17,40.78
2014-04-18,40.73
2014-04-19,40.67
2014-04-20,40.6
2014-04-21,40.56
2014-04-22,40.54
2014-04-23,40.51
2014-04-24,40.47
2014-04-25,40.52
2014-04-26,40.48
2014-04-27,40.39
2014-04-28,40.34
2014-04-29,40.29
2014-04-30,40.25
2014-05-01,40.21
2014-05-02,40.15
2014-05-03,40.08
2014-05-04,40.02
2014-05-05,40.03
2014-05-06,40.05
2014-05-07,40.12
2014-05-08,40.08
2014-05-09,40.06
2014-05-10,40.02
2014-05-11,39.99
2014-05-12,39.97
2014-05-13,39.93
2014-05-14,39.9
2014-05-15,39.91
2014-05-16,39.88
2014-05-17,39.89
2014-05-18,39.93
2014-05-19,39.97
2014-05-20,40.02
2014-05-21,40.0
2014-05-22,39.97
2014-05-23,39.95
2014-05-24,39.82
2014-05-25,39.65
2014-05-26,39.63
2014-05-27,39.61
2014-05-28,39.6
2014-05-29,39.59
2014-05-30,39.57
2014-05-31,39.55
2014-06-01,39.54
2014-06-02,39.53
2014-06-03,39.53
2014-06-04,39.52
2014-06-05,39.51
2014-06-06,39.51
2014-06-07,39.5
2014-06-08,39.49
2014-06-09,39.49
2014-06-10,39.47
2014-06-11,39.47
2014-06-12,39.47
2014-06-13,39.47
2014-06-14,39.48
2014-06-15,39.48
2014-06-16,39.48
2014-06-17,39.5
2014-06-18,39.52
2014-06-19,39.51
2014-06-20,39.49
2014-06-21,39.48
2014-06-22,39.47
2014-06-23,39.45
2014-06-24,39.44
2014-06-25,39.43
2014-06-26,39.45
2014-06-27,39.46
2014-06-28,39.46
2014-06-29,39.45
2014-06-30,39.44
2014-07-01,39.43
2014-07-02,39.42
2014-07-03,39.4
2014-07-04,39.37
2014-07-05,39.34
2014-07-06,39.32
2014-07-07,39.3
2014-07-08,39.3
2014-07-09,39.3
2014-07-10,39.29
2014-07-11,39.3
2014-07-12,39.31
2014-07-13,39.3
2014-07-14,39.29
2014-07-15,39.29
2014-07-16,39.27
2014-07-17,39.26
2014-07-18,39.25
2014-07-19,39.24
2014-07-20,39.25
2014-07-21,39.26
2014-07-22,39.26
2014-07-23,39.26
2014-07-24,39.26
2014-07-25,39.26
2014-07-26,39.26
2014-07-27,39.26
2014-07-28,39.26
2014-07-29,39.26
2014-07-30,39.26
2014-07-31,39.26
2014-08-01,39.27
2014-08-02,39.27
2014-08-03,39.28
2014-08-04,39.32
2014-08-05,39.39
2014-08-06,39.5
2014-08-07,39.52
2014-08-08,39.45
2014-08-09,39.43
2014-08-10,39.41
2014-08-11,39.39
2014-08-12,39.4
2014-08-13,39.41
2014-08-14,39.43
2014-08-15,39.44
2014-08-16,39.45
2014-08-17,39.43
2014-08-18,39.4
2014-08-19,39.38
2014-08-20,39.37
2014-08-21,39.37
2014-08-22,39.35
2014-08-23,39.34
2014-08-24,39.34
2014-08-25,39.34
2014-08-26,39.34
2014-08-27,39.34
2014-08-28,39.34
2014-08-29,39.34
2014-08-30,39.34
2014-08-31,39.35
2014-09-01,39.35
2014-09-02,39.35
2014-09-03,39.35
2014-09-04,39.35
2014-09-05,39.34
2014-09-06,39.34
2014-09-07,39.34
2014-09-08,39.33
2014-09-09,39.33
2014-09-10,39.33
2014-09-11,39.34
2014-09-12,39.35
2014-09-13,39.36
2014-09-14,39.36
2014-09-15,39.36
2014-09-16,39.37
2014-09-17,39.37
2014-09-18,39.38
2014-09-19,39.39
2014-09-20,39.39
2014-09-21,39.4
2014-09-22,39.42
2014-09-23,39.43
2014-09-24,39.44
2014-09-25,39.47
2014-09-26,39.5
2014-09-27,39.51
2014-09-28,39.52
2014-09-29,39.53
2014-09-30,39.52
2014-10-01,39.51
2014-10-02,39.5
2014-10-03,39.49
2014-10-04,39.48
2014-10-05,39.48
2014-10-06,39.48
2014-10-07,39.48
2014-10-08,39.24
2014-10-09,38.88
2014-10-10,38.88
2014-10-11,38.88
2014-10-12,38.88
2014-10-13,38.88
2014-10-14,38.88
2014-10-15,38.88
2014-10-16,38.88
2014-10-17,38.88
2014-10-18,38.88
2014-10-19,38.88
2014-10-20,38.88
2014-10-21,38.88
2014-10-22,38.88
2014-10-23,39.62
2014-10-24,39.68
2014-10-25,39.66
2014-10-26,39.69
2014-10-27,39.64
2014-10-28,39.59
2014-10-29,39.57
2014-10-30,39.56
2014-10-31,39.59
2014-11-01,39.67
2014-11-02,39.69
2014-11-03,39.69
2014-11-04,39.68
2014-11-05,39.67
2014-11-06,39.66
2014-11-07,39.66
2014-11-08,39.65
2014-11-09,39.65
2014-11-10,39.65
2014-11-11,39.65
2014-11-12,39.66
2014-11-13,39.72
2014-11-14,39.79
2014-11-15,39.8
2014-11-16,39.84
2014-11-17,39.88
2014-11-18,39.9
2014-11-19,39.92
2014-11-20,39.94
2014-11-21,39.98
2014-11-22,40.07
2014-11-23,40.08
2014-11-24,40.09
2014-11-25,40.06
2014-11-26,40.04
2014-11-27,40.02
2014-11-28,40.0
2014-11-29,39.99
2014-11-30,40.03
2014-12-01,40.06
2014-12-02,40.05
2014-12-03,40.09
2014-12-04,40.24
2014-12-05,40.3
2014-12-06,40.57
2014-12-07,41.22
2014-12-08,40.81
2014-12-09,40.61
2014-12-10,40.25
2014-12-11,40.49
2014-12-12,42.23
2014-12-13,42.39
2014-12-14,41.62
2014-12-15,41.19
2014-12-16,41.22
2014-12-17,41.77
2014-12-18,41.83
2014-12-19,41.76
2014-12-20,42.78
2014-12-21,44.3
2014-12-22,44.18
2014-12-23,43.84
2014-12-24,43.4
2014-12-25,43.22
2014-12-26,42.85
2014-12-27,42.59
2014-12-28,42.41
2014-12-29,42.29
2014-12-30,42.24
2014-12-31,42.44
2015-01-01,42.63
2015-01-02,42.6
2015-01-03,42.39
2015-01-04,42.07
2015-01-05,41.96
2015-01-06,41.93
2015-01-07,41.91
2015-01-08,41.91
2015-01-09,41.92
2015-01-10,41.93
2015-01-11,41.93
2015-01-12,41.98
2015-01-13,42.03
2015-01-14,41.91
2015-01-15,41.85
2015-01-16,41.87
2015-01-17,41.99
2015-01-18,42.13
2015-01-19,42.22
2015-01-20,42.08
2015-01-21,41.98
2015-01-22,41.9
2015-01-23,41.84
2015-01-24,41.81
2015-01-25,41.78
2015-01-26,41.76
2015-01-27,41.73
2015-01-28,41.68
2015-01-29,41.67
2015-01-30,41.64
2015-01-31,41.6
2015-02-01,41.58
2015-02-02,41.81
2015-02-03,42.65
2015-02-04,42.25
2015-02-05,41.99
2015-02-06,41.85
2015-02-07,43.09
2015-02-08,42.87
2015-02-09,42.78
2015-02-10,42.65
2015-02-11,42.4
2015-02-12,42.24
2015-02-13,42.14
2015-02-14,42.06
2015-02-15,41.99
2015-02-16,41.96
2015-02-17,41.93
2015-02-18,41.89
2015-02-19,41.85
2015-02-20,41.81
2015-02-21,41.78
2015-02-22,41.75
2015-02-23,41.7
2015-02-24,41.64
2015-02-25,41.63
2015-02-26,41.57
2015-02-27,41.57
2015-02-28,41.5
2015-03-01,41.51
2015-03-02,41.5
2015-03-03,41.43
2015-03-04,41.43
2015-03-05,41.41
2015-03-06,41.37
2015-03-07,41.34
2015-03-08,41.3
2015-03-09,41.23
2015-03-10,41.13
2015-03-11,41.1
2015-03-12,41.03
2015-03-13,40.97
2015-03-14,40.93
2015-03-15,40.86
2015-03-16,40.86
2015-03-17,40.75
2015-03-18,40.69
2015-03-19,40.65
2015-03-20,40.66
2015-03-21,40.59
2015-03-22,40.52
2015-03-23,40.7
2015-03-24,40.73
2015-03-25,40.86
2015-03-26,40.98
2015-03-27,40.92
2015-03-28,40.65
2015-03-29,40.53
2015-03-30,40.44
2015-03-31,40.37
2015-04-01,40.3
2015-04-02,40.23
2015-04-03,40.13
2015-04-04,40.07
2015-04-05,40.07
2015-04-06,40.06
2015-04-07,40.04
2015-04-08,40.27
2015-04-09,41.02
2015-04-10,40.46
2015-04-11,40.23
2015-04-12,40.15
2015-04-13,40.12
2015-04-14,40.12
2015-04-15,40.11
2015-04-16,40.09
2015-04-17,40.04
2015-04-18,40.0
2015-04-19,39.94
2015-04-20,39.89
2015-04-21,39.85
2015-04-22,39.82
2015-04-23,39.8
2015-04-24,39.79
2015-04-25,39.79
2015-04-26,39.78
2015-04-27,39.77
2015-04-28,39.78
2015-04-29,39.78
2015-04-30,39.75
2015-05-01,39.72
2015-05-02,39.78
2015-05-03,39.81
2015-05-04,39.83
2015-05-05,39.83
2015-05-06,39.81
2015-05-07,39.81
2015-05-08,39.81
2015-05-09,39.81
2015-05-10,39.81
2015-05-11,39.87
2015-05-12,39.97
2015-05-13,40.01
2015-05-14,39.93
2015-05-15,39.92
2015-05-16,39.94
2015-05-17,39.91
2015-05-18,39.94
2015-05-19,40.01
2015-05-20,40.75
2015-05-21,41.71
2015-05-22,41.63
2015-05-23,41.98
2015-05-24,41.4
2015-05-25,40.97
2015-05-26,40.6
2015-05-27,40.35
2015-05-28,40.17
2015-05-29,40.08
2015-05-30,40.05
2015-05-31,40.01
2015-06-01,39.98
2015-06-02,39.99
2015-06-03,39.97
2015-06-04,39.94
2015-06-05,39.89
2015-06-06,39.86
2015-06-07,39.85
2015-06-08,39.78
2015-06-09,39.7
2015-06-10,39.63
2015-06-11,39.58
2015-06-12,39.53
2015-06-13,39.5
2015-06-14,39.47
2015-06-15,39.46
2015-06-16,39.46
2015-06-17,39.44
2015-06-18,39.43
2015-06-19,39.42
2015-06-20,39.4
2015-06-21,39.4
2015-06-22,39.38
2015-06-23,39.37
2015-06-24,39.36
2015-06-25,39.34
2015-06-26,39.35
2015-06-27,39.36
2015-06-28,39.35
2015-06-29,39.38
2015-06-30,39.36
2015-07-01,39.35
2015-07-02,39.34
2015-07-03,39.33
2015-07-04,39.33
2015-07-05,39.33
2015-07-06,39.34
2015-07-07,39.36
2015-07-08,39.39
2015-07-09,39.41
2015-07-10,39.41
2015-07-11,39.45
2015-07-12,39.44
2015-07-13,39.41
2015-07-14,39.38
2015-07-15,39.37
2015-07-16,39.34
2015-07-17,39.35
2015-07-18,39.33
2015-07-19,39.29
2015-07-20,39.3
2015-07-21,39.3
2015-07-22,39.36
2015-07-23,39.43
2015-07-24,39.4
2015-07-25,39.37
2015-07-26,39.35
2015-07-27,39.33
2015-07-28,39.33
2015-07-29,39.3
2015-07-30,39.3
2015-07-31,39.3
2015-08-01,39.29
2015-08-02,39.31
2015-08-03,39.34
2015-08-04,39.35
2015-08-05,39.35
2015-08-06,39.34
2015-08-07,39.35
2015-08-08,39.36
2015-08-09,39.34
2015-08-10,39.34
2015-08-11,39.36
2015-08-12,39.35
2015-08-13,39.34
2015-08-14,39.32
2015-08-15,39.32
2015-08-16,39.31
2015-08-17,39.31
2015-08-18,39.31
2015-08-19,39.31
2015-08-20,39.31
2015-08-21,39.3
2015-08-22,39.29
2015-08-23,39.28
2015-08-24,39.29
2015-08-25,39.29
2015-08-26,39.29
2015-08-27,39.29
2015-08-28,39.28
2015-08-29,39.29
2015-08-30,39.31
2015-08-31,39.31
2015-09-01,39.32
2015-09-02,39.33
2015-09-03,39.33
2015-09-04,39.34
2015-09-05,39.35
2015-09-06,39.34
2015-09-07,39.35
2015-09-08,39.35
2015-09-09,39.35
2015-09-10,39.35
2015-09-11,39.35
2015-09-12,39.35
2015-09-13,39.34
2015-09-14,39.39
2015-09-15,39.49
2015-09-16,39.52
2015-09-17,39.52
2015-09-18,39.51
2015-09-19,39.46
2015-09-20,39.45
2015-09-21,39.43
2015-09-22,39.44
2015-09-23,39.41
2015-09-24,39.42
2015-09-25,39.42
2015-09-26,39.42
2015-09-27,39.41
2015-09-28,39.42
2015-09-29,39.41
2015-09-30,39.41
2015-10-01,39.43
2015-10-02,39.45
2015-10-03,39.45
2015-10-04,39.45
2015-10-05,39.45
2015-10-06,39.45
2015-10-07,39.45
2015-10-08,39.47
2015-10-09,39.46
2015-10-10,39.45
2015-10-11,39.47
2015-10-12,39.47
2015-10-13,39.47
2015-10-14,39.46
2015-10-15,39.46
2015-10-16,39.46
2015-10-17,39.48
2015-10-18,39.5
2015-10-19,39.51
2015-10-20,39.59
2015-10-21,39.58
2015-10-22,39.55
2015-10-23,39.56
2015-10-24,39.55
2015-10-25,39.54
2015-10-26,39.54
2015-10-27,39.54
2015-10-28,39.59
2015-10-29,39.61
2015-10-30,39.6
2015-10-31,39.58
2015-11-01,39.59
2015-11-02,39.6
2015-11-03,39.59
2015-11-04,39.58
2015-11-05,39.59
2015-11-06,39.58
2015-11-07,39.59
2015-11-08,39.61
2015-11-09,39.66
2015-11-10,39.99
2015-11-11,40.02
2015-11-12,40.08
2015-11-13,41.01
2015-11-14,40.45
2015-11-15,40.15
2015-11-16,39.99
2015-11-17,39.92
2015-11-18,39.91
2015-11-19,39.9
2015-11-20,39.83
2015-11-21,39.68
2015-11-22,39.59
2015-11-23,39.6
2015-11-24,39.65
2015-11-25,39.83
2015-11-26,39.88
2015-11-27,39.87
2015-11-28,39.93
2015-11-29,39.88
2015-11-30,39.85
2015-12-01,39.86
2015-12-02,39.9
2015-12-03,39.97
2015-12-04,40.11
2015-12-05,40.13
2015-12-06,40.1
2015-12-07,40.12
2015-12-08,40.13
2015-12-09,40.17
2015-12-10,40.53
2015-12-11,40.5
2015-12-12,40.38
2015-12-13,40.38
2015-12-14,40.31
2015-12-15,40.24
2015-12-16,40.2
2015-12-17,40.22
2015-12-18,40.24
2015-12-19,40.35
2015-12-20,40.62
2015-12-21,40.59
2015-12-22,40.53
2015-12-23,40.57
2015-12-24,40.6
2015-12-25,40.59
2015-12-26,40.75
2015-12-27,40.52
2015-12-28,40.45
2015-12-29,40.55
2015-12-30,40.48
2015-12-31,40.61
2016-01-01,40.49
2016-01-02,40.37
2016-01-03,40.39
2016-01-04,40.37
2016-01-05,40.39
2016-01-06,40.47
2016-01-07,40.61
2016-01-08,40.75
2016-01-09,40.79
2016-01-10,40.71
2016-01-11,40.68
2016-01-12,40.59
2016-01-13,41.0
2016-01-14,41.6
2016-01-15,41.64
2016-01-16,41.62
2016-01-17,42.01
2016-01-18,43.87
2016-01-19,44.56
2016-01-20,44.74
2016-01-21,44.24
2016-01-22,44.85
2016-01-23,44.96
2016-01-24,44.33
2016-01-25,43.77
2016-01-26,43.39
2016-01-27,43.19
2016-01-28,43.35
2016-01-29,45.11
2016-01-30,45.06
2016-01-31,44.37
2016-02-01,44.05
2016-02-02,43.87
2016-02-03,43.69
2016-02-04,43.55
2016-02-05,43.4
2016-02-06,43.3
2016-02-07,43.3
2016-02-08,43.48
2016-02-09,43.74
2016-02-10,43.88
2016-02-11,43.86
2016-02-12,43.99
2016-02-13,44.1
2016-02-14,44.04
2016-02-15,44.28
2016-02-16,44.34
2016-02-17,44.27
2016-02-18,44.36
2016-02-19,44.56
2016-02-20,44.54
2016-02-21,44.31
2016-02-22,44.08
2016-02-23,43.9
2016-02-24,43.73
2016-02-25,43.62
2016-02-26,43.59
2016-02-27,43.67
2016-02-28,43.83
2016-02-29,43.75
2016-03-01,43.67
2016-03-02,43.61
2016-03-03,43.68
2016-03-04,43.82
2016-03-05,43.75
2016-03-06,44.65
2016-03-07,44.87
2016-03-08,44.51
2016-03-09,44.35
2016-03-10,44.63
2016-03-11,44.48
2016-03-12,44.36
2016-03-13,44.45
2016-03-14,44.87
2016-03-15,44.67
2016-03-16,44.46
2016-03-17,44.29
2016-03-18,44.16
2016-03-19,44.02
2016-03-20,43.92
2016-03-21,43.96
2016-03-22,44.14
2016-03-23,44.25
2016-03-24,44.06
2016-03-25,43.9
2016-03-26,43.77
2016-03-27,43.65
2016-03-28,43.52
2016-03-29,43.41
2016-03-30,43.31
2016-03-31,43.22
2016-04-01,43.1
2016-04-02,43.01
2016-04-03,42.9
2016-04-04,42.78
2016-04-05,42.68
2016-04-06,42.66
2016-04-07,42.59
2016-04-08,42.52
2016-04-09,42.46
2016-04-10,42.42
2016-04-11,42.43
2016-04-12,42.44
2016-04-13,42.46
2016-04-14,42.49
2016-04-15,41.99
2016-04-16,41.65
2016-04-17,41.87
2016-04-18,41.81
2016-04-19,41.75
2016-04-20,41.72
2016-04-21,41.7
2016-04-22,41.71